LiveATC.Net - Listen to live air traffic control over the Internet!


ICAO: CKK7  IATA: CKK   Airport: Steinbach (South) Airport
City: Steinbach   State/Province: Manitoba
Country: Canada   Continent: North America
CYWG METAR Weather: CYWG 060700Z 17003KT 15SM SCT130 BKN250 18/14 A3002 RMK AC4CC2 SLP170 DENSITY ALT 1300FT
CKK7 Flight Activity (FlightAware)
CKK7 Webcam:  (Airport Webcams) 

CKK7 CTAF
Feed Status: UP   Listeners: 0
Listen in your browser - HTML5 player (in browser, HTML5)
Click here to listen with your own player (launches your MP3 player)
FacilityFrequency
Steinbach CTAF122.700

NOTICE

Unauthorized use prohibited. See LiveATC.net Terms of Service


Airport/ARTCC Code
Frequency Search
(e.g., 124.400, 128.75)
Site-wide search
 


Browse Feeds
Top 50 Feeds
HF Oceanic Feeds
Coverage Map
Bad Weather Areas

LiveATC FAQ
Offer LiveATC feed
Contact LiveATC.net
Press Inquiries

LiveATC on iPhone
LiveATC on Android

LiveATC Mobile
(Mobile browser)

ATC Audio Archives
Interesting Recordings

LiveATC Forums


Home Page
About LiveATC.net


Terms of Use
Privacy Policy

AIRMETs/SIGMETs

FAA Airport Status
NAS Status
Arrival Demand


Server Software By:
Icecast.org
Liquidsoap